Location: Ashtead
(51.3000°N, 0.3000°W)
Time: 19:46:28
(UTC+00:00)

Cosmos 2112 Rocket - Pass Details

Date: 26 September 2023
Orbit: 755 x 785 km, 74.0° (Epoch: 08 December)

Event Time Altitude Azimuth Distance (km) Brightness Sun altitude
Rises 03:43:09 0° 331° (NNW) 3,285 7.2 -20.5°
Reaches altitude 10° 03:45:37 10° 326° (NW) 2,354 6.4 -20.2°
Maximum altitude 03:50:42 46° 254° (WSW) 1,053 4.2 -19.4°
Drops below altitude 10° 03:55:46 10° 183° (S) 2,340 6.3 -18.7°
Sets 03:58:13 0° 177° (S) 3,262 7.1 -18.4°
